Weather History for Fort Benning, GA

Change the Weather History Date:

Tuesday, October 22, 2013

  Actual Average Record
Temperature  
Mean Temperature 65 °F -  
Max Temperature 75 °F 74 °F 84 °F (2000)
Min Temperature 55 °F 48 °F 33 °F (2011)
Growing Degree Days 15 (Base 50)    
Moisture  
Dew Point 62 °F    
Average Humidity 96    
Maximum Humidity 100    
Minimum Humidity 63    
Precipitation  
Precipitation 0.02 in - - ()
Sea Level Pressure  
Sea Level Pressure 29.95 in    
Wind  
Wind Speed 2 mph (West)    
Max Wind Speed 6 mph    
Max Gust Speed -    
Visibility 6 miles    
Events Fog , Rain    
Averages and records for this station are not official NWS values.
T = Trace of Precipitation, MM = Missing Value Source: NWS Daily Summary

Daily Weather History Graph

Daily Weather History Graph

Search for Another Location

Airport:

Trip Planner

Search our weather history database for the weather conditions in past years. The results will help you decide how hot, cold, wet, or windy it might be!

Date:

Astronomy

Oct. 22, 2013 Rise Set
Actual Time 7:49 AM EDT 6:59 PM EDT
Civil Twilight 7:24 AM EDT 7:24 PM EDT
Nautical Twilight 6:55 AM EDT 7:52 PM EDT
Astronomical Twilight 6:26 AM EDT 8:21 PM EDT
Moon 9:47 PM EDT (10/22) 11:08 AM EDT (10/22)
Length of Visible Light 11h 59m
Length of Day
11h 10m
Waning Gibbous, 87% of the Moon is Illuminated
Oct 22
Waning Gibbous
Oct 26
Last Quarter
Nov 3
New
Nov 10
First Quarter
Nov 17
Full

Hourly Weather History & Observations

Time (EDT) Temp. Dew Point Humidity Pressure Visibility Wind Dir Wind Speed Gust Speed Precip Events Conditions
12:23 AM 62.6 °F 60.8 °F 94% 30.01 in 5.0 mi SSE 2.3 mph - N/A   Partly Cloudy
12:28 AM 62.6 °F 62.6 °F 100% 30.01 in 5.0 mi SE 3.5 mph - N/A   Clear
12:58 AM 61.9 °F 61.7 °F 99% 30.01 in 6.0 mi Calm Calm - N/A   Mostly Cloudy
1:03 AM 60.8 °F 60.8 °F 100% 30.01 in 4.0 mi West 2.3 mph - N/A   Mostly Cloudy
1:13 AM 62.6 °F 62.6 °F 100% 30.00 in 5.0 mi Calm Calm - N/A   Scattered Clouds
1:33 AM 62.6 °F 62.6 °F 100% 29.99 in 10.0 mi ESE 2.3 mph - N/A   Clear
1:38 AM 60.8 °F 60.8 °F 100% 29.99 in 9.0 mi ESE 2.3 mph - N/A   Clear
1:58 AM 61.7 °F 61.3 °F 99% 30.01 in 8.0 mi South 2.3 mph - N/A   Clear
2:08 AM 62.6 °F 60.8 °F 94% 29.99 in 10.0 mi Calm Calm - N/A   Clear
2:53 AM 60.8 °F 60.8 °F 100% 30.00 in 9.0 mi NW 2.3 mph - N/A   Scattered Clouds
2:58 AM 61.2 °F 60.8 °F 99% 30.01 in 8.0 mi NNW 1.2 mph - N/A   Partly Cloudy
3:58 AM 60.6 °F 60.3 °F 99% 29.98 in 4.0 mi Variable 1.2 mph - N/A   Overcast
4:03 AM 60.8 °F 60.8 °F 100% 29.97 in 5.0 mi West 2.3 mph - N/A   Overcast
4:45 AM 60.8 °F 60.8 °F 100% 29.99 in 6.0 mi NW 5.8 mph - N/A Rain Light Rain
4:58 AM 61.9 °F 61.9 °F 100% 30.01 in 6.0 mi WNW 4.6 mph - 0.00 in Rain Light Rain
5:13 AM 62.6 °F 62.6 °F 100% 29.99 in 9.0 mi WNW 2.3 mph - N/A   Mostly Cloudy
5:38 AM 62.6 °F 62.6 °F 100% 29.99 in 8.0 mi WSW 2.3 mph - N/A   Overcast
5:43 AM 62.6 °F 62.6 °F 100% 30.00 in 8.0 mi WSW 2.3 mph - N/A Rain Light Rain
5:58 AM 62.4 °F 62.4 °F 100% 30.02 in 6.0 mi Calm Calm - 0.01 in Rain Light Rain
6:13 AM 62.6 °F 62.6 °F 100% 30.00 in 6.0 mi Calm Calm - N/A Rain Light Rain
6:18 AM 62.6 °F 62.6 °F 100% 30.00 in 6.0 mi Calm Calm - N/A Rain Light Rain
6:28 AM 62.6 °F 62.6 °F 100% 29.98 in 4.0 mi Calm Calm - N/A Rain Light Rain
6:44 AM 62.6 °F 62.6 °F 100% 29.98 in 4.0 mi NW 2.3 mph - N/A   Scattered Clouds
6:58 AM 62.2 °F 62.2 °F 100% 29.99 in 3.0 mi Calm Calm - 0.01 in   Mostly Cloudy
7:28 AM 62.6 °F 62.6 °F 100% 29.98 in 2.0 mi NW 2.3 mph - N/A   Overcast
7:33 AM 62.6 °F 62.6 °F 100% 29.98 in 1.8 mi NW 1.2 mph - N/A   Mostly Cloudy
7:35 AM 62.6 °F 62.6 °F 100% 29.98 in 1.8 mi WNW 1.2 mph - N/A   Light Drizzle
7:40 AM 62.6 °F 62.6 °F 100% 29.97 in 2.0 mi Calm Calm - N/A   Light Drizzle
7:50 AM 62.6 °F 62.6 °F 100% 29.98 in 2.5 mi WNW 2.3 mph - N/A   Light Drizzle
7:55 AM 60.8 °F 60.8 °F 100% 29.98 in 1.8 mi WNW 2.3 mph - N/A   Light Drizzle
7:58 AM 61.7 °F 61.7 °F 100% 29.98 in 1.8 mi WNW 2.3 mph - 0.00 in   Light Drizzle
8:02 AM 62.6 °F 62.6 °F 100% 29.98 in 2.0 mi West 2.3 mph - N/A   Scattered Clouds
8:12 AM 62.6 °F 62.6 °F 100% 29.97 in 3.0 mi NW 3.5 mph - N/A   Scattered Clouds
8:21 AM 62.6 °F 62.6 °F 100% 29.97 in 2.5 mi SSE 5.8 mph - N/A   Mostly Cloudy
8:31 AM 62.6 °F 62.6 °F 100% 29.97 in 3.0 mi SSE 3.5 mph - N/A   Mostly Cloudy
8:36 AM 62.6 °F 62.6 °F 100% 29.98 in 5.0 mi SSE 3.5 mph - N/A   Mostly Cloudy
8:56 AM 62.6 °F 62.6 °F 100% 29.98 in 10.0 mi Calm Calm - N/A   Mostly Cloudy
8:58 AM 62.8 °F 62.8 °F 100% 29.99 in 10.0 mi Calm Calm - 0.00 in   Mostly Cloudy
9:03 AM 62.6 °F 62.6 °F 100% 29.98 in 10.0 mi North 1.2 mph - N/A   Mostly Cloudy
9:08 AM 62.6 °F 62.6 °F 100% 29.98 in 10.0 mi North 3.5 mph - N/A   Mostly Cloudy
9:58 AM 64.2 °F 64.0 °F 99% 29.99 in 10.0 mi SSE 2.3 mph - N/A   Scattered Clouds
10:58 AM 64.9 °F 64.6 °F 99% 29.99 in 10.0 mi Calm Calm - N/A   Mostly Cloudy
11:58 AM 68.2 °F 65.1 °F 90% 29.97 in 10.0 mi Calm Calm - N/A   Scattered Clouds
12:08 PM 68.0 °F 64.4 °F 88% 29.96 in 10.0 mi Calm Calm - N/A   Mostly Cloudy
12:58 PM 69.4 °F 65.3 °F 87% 29.95 in 10.0 mi Variable 1.2 mph - N/A   Partly Cloudy
1:58 PM 72.5 °F 63.3 °F 73% 29.92 in 10.0 mi Variable 2.3 mph - N/A   Scattered Clouds
2:58 PM 73.0 °F 62.8 °F 70% 29.90 in 10.0 mi Variable 1.2 mph - N/A   Scattered Clouds
3:58 PM 75.2 °F 62.6 °F 65% 29.88 in 10.0 mi SW 2.3 mph - N/A   Partly Cloudy
4:58 PM 75.7 °F 62.2 °F 63% 29.87 in 10.0 mi West 2.3 mph - N/A   Partly Cloudy
5:48 PM 73.4 °F 62.6 °F 69% 29.86 in 10.0 mi West 2.3 mph - N/A   Overcast
5:58 PM 74.1 °F 62.6 °F 67% 29.87 in 10.0 mi West 2.3 mph - N/A   Overcast
6:08 PM 75.2 °F 62.6 °F 65% 29.86 in 10.0 mi WSW 2.3 mph - N/A   Scattered Clouds
6:58 PM 68.5 °F 64.6 °F 87% 29.87 in 10.0 mi Calm Calm - N/A   Clear
7:58 PM 63.1 °F 62.8 °F 99% 29.88 in 10.0 mi SSE 1.2 mph - N/A   Clear
8:08 PM 62.6 °F 62.6 °F 100% 29.87 in 3.0 mi SSE 2.3 mph - N/A   Clear
8:18 PM 62.6 °F 62.6 °F 100% 29.87 in 2.0 mi Calm Calm - N/A   Clear
8:23 PM 62.6 °F 62.6 °F 100% 29.87 in 1.5 mi Calm Calm - N/A   Clear
8:28 PM 62.6 °F 62.6 °F 100% 29.87 in 1.2 mi Calm Calm - N/A   Clear
8:33 PM 60.8 °F 60.8 °F 100% 29.87 in 0.5 mi Calm Calm - N/A Fog Fog
8:43 PM 60.8 °F 59.0 °F 94% 29.87 in 0.8 mi Calm Calm - N/A   Clear
8:48 PM 59.0 °F 59.0 °F 100% 29.87 in 4.0 mi Calm Calm - N/A   Clear
8:58 PM 59.0 °F 59.0 °F 100% 29.88 in 4.0 mi Calm Calm - N/A   Clear
9:38 PM 59.0 °F 59.0 °F 100% 29.87 in 4.0 mi SSE 2.3 mph - N/A   Clear
9:59 PM 60.8 °F 60.8 °F 100% 29.88 in 3.0 mi Calm Calm - N/A Fog Fog
10:12 PM 59.0 °F 59.0 °F 100% 29.88 in 3.0 mi Calm Calm - N/A   Partly Cloudy
10:45 PM 57.2 °F 57.2 °F 100% 29.89 in 4.0 mi Calm Calm - N/A   Scattered Clouds
10:58 PM 57.2 °F 57.2 °F 100% 29.91 in 5.0 mi Calm Calm - N/A   Scattered Clouds
11:30 PM 57.2 °F 57.2 °F 100% 29.90 in 4.0 mi Calm Calm - N/A   Partly Cloudy
11:44 PM 55.4 °F 55.4 °F 100% 29.89 in 2.0 mi North 2.3 mph - N/A   Clear
11:49 PM 55.4 °F 55.4 °F 100% 29.89 in 1.8 mi North 1.2 mph - N/A   Clear
11:54 PM 55.4 °F 55.4 °F 100% 29.90 in 2.0 mi North 2.3 mph - N/A   Clear
11:58 PM 55.4 °F 55.4 °F 100% 29.91 in 3.0 mi NNW 3.5 mph - N/A   Clear